Regional Weather Roundup
Issued by NWS Wilmington, NC

Home | Current Version | Previous Version | Text Only | Print | Product List | Glossary On
Versions: 1 2 3 4 5 6 7 8 9 10 11 12 13 14 15 16 17 18 19 20 21 22 23 24 25 26 27 28 29 30 31 32 33 34 35 36 37 38 39 40 41 42 43 44
000
ASUS42 KILM 021510
RWRILM
RWRILM
REGIONAL HOURLY WEATHER ROUNDUP
NATIONAL WEATHER SERVICE WILMINGTON NC
1100 AM EDT THU OCT 02 2014

NOTE: "FAIR" INDICATES FEW OR NO CLOUDS BELOW 12,000 FEET WITH NO
SIGNIFICANT WEATHER AND/OR OBSTRUCTIONS TO VISIBILITY.

...............WFO WILMINGTON COUNTY WARNING AREA...............

......COASTAL NC AND SC COUNTIES......

CITY           SKY/WX    TMP DP  RH WIND       PRES   REMARKS
WILMINGTON     FAIR      78  67  68 W6        30.12R
SOUTHPORT      FAIR      76  64  66 CALM      30.12S
N MYRTLE BEACH FAIR      78  65  63 CALM      30.12S
MYRTLE BEACH   MOSUNNY   81  66  61 CALM      30.13R

......INLAND NC AND SC COUNTIES.......

CITY           SKY/WX    TMP DP  RH WIND       PRES   REMARKS
LUMBERTON      FAIR      77  65  66 W8        30.12S
ELIZABETHTOWN  FAIR      77  65  65 W7        30.12S
WHITEVILLE     FAIR      75  64  68 CALM      30.13S
FLORENCE       FAIR      78  64  61 SW6       30.13S
DARLINGTON     FAIR      79  63  57 W9        30.14R

....................REST OF NORTH CAROLINA......................

.........EASTERN NC.........

CITY           SKY/WX    TMP DP  RH WIND       PRES   REMARKS
CAPE HATTERAS  PTSUNNY   71  63  75 VRB6      30.11S
JACKSONVILLE   FAIR      77  64  65 CALM      30.12S
MOREHEAD CITY  FAIR      75  66  73 NW5       30.11S
KENANSVILLE      N/A     75  64  70 CALM      30.13S
NEW BERN       FAIR      77  65  66 N3        30.13S
ELIZABETH CITY FAIR      72  64  76 N5        30.12S

.........CENTRAL NC.........

CITY           SKY/WX    TMP DP  RH WIND       PRES   REMARKS
RALEIGH DURHAM FAIR      75  64  68 CALM      30.13S
ROCKY MOUNT    FAIR      73  66  78 CALM      30.13S
ROANOKE RAPIDS NOT AVBL
FAYETTEVILLE   FAIR      76  67  73 CALM      30.11F
HOFFMAN        MOSUNNY   73  72  94 W3        30.14F

.........WESTERN NC.........

CITY           SKY/WX    TMP DP  RH WIND       PRES   REMARKS
CHARLOTTE      FAIR      76  62  62 NW3       30.13S
GREENSBORO     PTSUNNY   70  65  84 E3        30.13S HAZE
HICKORY        NOT AVBL
BOONE          NOT AVBL
ASHEVILLE      NOT AVBL

.....................REST OF SOUTH CAROLINA.....................

.........EASTERN SC.........

CITY           SKY/WX    TMP DP  RH WIND       PRES   REMARKS
CHARLESTON     FAIR      82  68  62 NE6       30.12S
BEAUFORT MCAS  FAIR      80  68  66 VRB6      30.12S
HILTON HEAD    NOT AVBL

.........CENTRAL SC.........

CITY           SKY/WX    TMP DP  RH WIND       PRES   REMARKS
COLUMBIA       FAIR      81  61  50 SW7       30.12S
ORANGEBURG     FAIR      77  63  61 SW3       30.13F
SUMTER SHAW    FAIR      78  59  51 SW5       30.12S

.........WESTERN SC.........

CITY           SKY/WX    TMP DP  RH WIND       PRES   REMARKS
GREENVILLE     NOT AVBL
ROCK HILL      FAIR      75  63  66 VRB5      30.14S
ANDERSON       FAIR      76  63  64 CALM      30.13F
CLEMSON        NOT AVBL
GREENWOOD      FAIR      77  65  66 CALM      30.15S


...................COASTAL AND OFFSHORE REPORTS..................

................LOCAL PIERS AND NC RESERVE................


STATION/POSITION TIME  SKY/WX   TEMP    WIND        PRES    VSBY
                                AIR SEA DIR/SP/G
                 (UTC)          (F)     (DEG/KT/KT) (MB)    (MI)
JOHNY MRCER PIER 1500            76 78  120/  4/  5 1019.3R
NC RESRV MASNBRO 1400            75     350/  1     1019.0S
OCEAN CREST PIER 1500            78 76  150/  3/  4 1019.1R
SPRINGMAID  PIER 1500            75 76  100/  4/  4 1020.1S


................COASTAL AND OFFSHORE BUOYS................


STATION/POSITION TIME  SKY/WX   TEMP    WIND        PRES    VSBY
                                AIR SEA DIR/SP/G
                 (UTC)          (F)     (DEG/KT/KT) (MB)    (MI)
DIMNDSHOAL 41025 1500            71     340/ 12/ 14 1019.3S
WVE H/P(F/S)=  3/ 8 WND WVE H/P(F/S)=  2/ 6 SWL H/P/D(F/S/D)=  2/ 50/ 8

CAPE LOOKOUT     1400            72      20/  5/  7 1019.5R
ONSLOW BAY 41036 1500            74 79   10/  6/  6 1019.3R
WVE H/P(F/S)=  2/12 WND WVE H/P(F/S)=  2/ 3 SWL H/P/D(F/S/D)=  2/160/12

5 WRITEBCH 41038 1400            70 76   10/  4/  4   N/A
MASONBORO  41110 1500               76                N/A
WVE H/P(F/S)=  2/ 7 WND WVE H/P(F/S)=  2/ 7

WILM HARBR 41108 1500               76                N/A
WVE H/P(F/S)=  2/ 7 WND WVE H/P(F/S)=  2/ 7

27WRITEBCH 41037 1400            72 79  350/  8/  8 1019.4R
FRYING PAN 41013 NOT AVBL
SUNST NRSH 41024 1400            78      CALM  /  2 1019.6R
CAPRS NRSH 41029 1400            76      30/  6/  6   N/A
EDISTO     41004 1500            78 81   50/  8/ 12 1019.2R
WVE H/P(F/S)=  2/ 7 WND WVE H/P(F/S)=  2/ 4 SWL H/P/D(F/S/D)=  2/ 7



..........OFFSHORE BUOYS BEYOND 100 NM OFFSHORE...........
.....IN A TRIANGLE---HAT TO BERMUDA TO BAHAMAS TO HAT.....


STATION/POSITION TIME  SKY/WX   TEMP    WIND        PRES    VSBY
                                AIR SEA DIR/SP/G
                 (UTC)          (F)     (DEG/KT/KT) (MB)    (MI)
150E HAT   41001 NOT AVBL
W BERMUDA  41048 1354            80 81  340/ 16/ 19 1014.1S
WVE H/P(F/S)=  4/ 7 WND WVE H/P(F/S)=  3/ 5 SWL H/P/D(F/S/D)=  2/180/ 7

ATLANTIC S 41049 1419            81 84  220/ 17/ 21 1015.8F
WVE H/P(F/S)=  7/ 8 WND WVE H/P(F/S)=  7/ 8 SWL H/P/D(F/S/D)=  2/100/12

E BAHAMAS  41046 1403            83 84  210/ 12/ 14 1017.5F
WVE H/P(F/S)=  3/ 6 WND WVE H/P(F/S)=  2/ 5 SWL H/P/D(F/S/D)=  2/280/ 6

NE BAHAMAS 41047 1448            82 83  310/  8/ 10 1016.6R
WVE H/P(F/S)=  3/ 6 WND WVE H/P(F/S)=  2/ 4 SWL H/P/D(F/S/D)=  3/260/ 6

120E CANVRL41010 1500            81 85   60/ 10/ 12 1017.1S
WVE H/P(F/S)=  3/ 8 WND WVE H/P(F/S)=  2/ 4 SWL H/P/D(F/S/D)=  2/ 50/ 8


END



USA.gov is the U.S. government's official web portal to all federal, state and local government web resources and services.